TIANWANG 1A (TW-1A)
1 40928U 15051D   19263.78114237  .00002461  00000-0  61114-4 0  9999
2 40928  97.1392 292.9916 0012728  89.4329 358.9293 15.41201138223663
LAPAN A2
1 40931U 15052B   19263.70673608  .00000551  00000-0 -12414-4 0  9996
2 40931   5.9954 106.1404 0013255  42.7645 317.3524 14.76612876215181
LQSAT
1 40958U 15057A   19263.16563339 -.00000000  00000-0  76095-5 0  9994
2 40958  97.8907 329.7993 0016936 303.7916  56.1679 14.73088936212563
CHUBUSAT 2
1 41338U 16012B   19263.37619346  .00000284  00000-0  15370-4 0  9993
2 41338  31.0027 269.3842 0013784 311.0633  48.8812 15.00179975196997
CHUBUSAT 3
1 41339U 16012C   19263.40131249  .00000283  00000-0  15237-4 0  9990
2 41339  31.0110 267.1987 0013792 320.1120  39.8503 15.00353486196996
OUFTI-1
1 41458U 16025C   19263.81061680  .00001137  00000-0  61297-4 0  9998
2 41458  98.1004 355.4403 0166729  41.0023 320.3598 15.06023200186735
E-STAR-2
1 41459U 16025D   19263.71688323  .00001021  00000-0  55870-4 0  9999
2 41459  98.1014 354.9496 0167884  42.9019 318.5146 15.05653603186699
AAUSAT 4
1 41460U 16025E   19263.77249777  .00001485  00000-0  77444-4 0  9998
2 41460  98.0955 356.4885 0157991  34.2140 326.9133 15.07615479186847
NUSAT 1
1 41557U 16033B   19263.86559378  .00000860  00000-0  34798-4 0  9996
2 41557  97.4157 350.8169 0012829 331.3205  28.7327 15.27376351184460
BEESAT 4
1 41619U 16040W   19263.12793656  .00000926  00000-0  41929-4 0  9998
2 41619  97.3587 323.5754 0012718  60.0990 300.1509 15.23300339168084
PRATHAM
1 41783U 16059A   19263.16169264  .00000014  00000-0  11866-4 0  9991
2 41783  98.0583 320.6356 0034928  90.3252 270.1952 14.63009252159216
ALSAT 1N
1 41789U 16059G   19263.82223838  .00000042  00000-0  16870-4 0  9999
2 41789  98.0607 323.4813 0029588  77.4035 283.0466 14.64261897159421
NAYIF 1
1 42017U 17008BX  19263.22824948  .00000993  00000-0  41773-4 0  9997
2 42017  97.3951 329.3286 0005979 184.2690 175.8498 15.25715388144188
MAX VALIER SAT
1 42778U 17036P   19263.14548691  .00000577  00000-0  28136-4 0  9997
2 42778  97.3454 318.7131 0010709 253.7563 106.2496 15.22134831124458
